ATLAS 5 CENTAUR DEB, 43980

Orbit data source: Space-Track

ATLAS 5 CENTAUR DEB, 43980 is space debris in HEO originally from a launch on Wed, 17 Sep 2014 UTC launched from the Air Force Eastern Test Range (AFETR). Debris objects in space refer to the collection of defunct objects orbiting the Earth. Examples of debris include non-operational satellites, rocket bodies, and fragments generated from explosions, collisions, or faulty payload assembly.

Loading next visibility...
ATLAS 5 CENTAUR DEB details
Identifier
43980, 2014-055AK
Orbit
HEO
Last TLE update3 days ago
Origin
Flag of USULA (US)
ManufacturerUnknown
MissionSpacecraft
Bus & MotorUnknown
MassUnknown
Launch date (UTC)
2014-09-17 (10 years ago)
Launch vehicleUnknown
Launch site
Air Force Eastern Test Range (AFETR)
Object type
Payload
Rocket body
Debris
Shape & HBRUnknown
Radar Cross SectionMedium (>0.1 m² and <1 m²)

Expand to show TLE details & history

TLE from 3 days ago
0 ATLAS 5 CENTAUR DEB
1 43980U 14055AK  24358.56500816 -.00000039  00000-0  00000-0 0  9995
2 43980  19.5959 200.3220 4860269  63.6387 337.9345  1.83786897 42244
Epoch: 2024-12-23T13:33Z
Definitive object data (Epoch: 2024-12-23T13:33:36.705Z)
Latitude-0.00001°
Longitude-95.64088°
Altitude11,281.965 km
Speed5.566 km/s
True Right ascension13h 21m 23s
True Declination0° 00' 00"
Sunlit
Object was in daylight at TLE epoch
Visualization TLE readout
Latitude-4.82312°
Longitude97.78478°
Altitude24,998.617 km
Speed3.354 km/s
Apparent Right ascension01h 44m 07s
Apparent Declination-11° 19' 29"
Sunlit
Object is in daylight
Visualization observer readout
Local Sidereal Time09:46:56
Azimuth281.441° WNW
Elevation-30.663°
Doppler factor1
Orbital elements
Apogee altitude35,460.976 km
Perigee altitude8,092.784 km
Semi-major axis28,155.017 km
Eccentricity0.4860269
Inclination19.5959°
RAAN200.322°
Arg. of periapsis63.6387°
True anomaly296.57143°
Mean anomaly337.9345°
Eccentric anomaly320.05515°
Mean motion0.45942 °/min
BSTARUnknown
Orbital period783.6 mins
Loading maneuver chart data...

ATLAS 5 CENTAUR DEB Visibility forecast

Observer location: undefined°, undefined

Span
Click to sort rows by Start time (UTC) header in descending order
Start Az.
Max El. time (UTC)
Max El. Az.
Max El.
End time (UTC)
End Az.
630 mins2024-12-26 20:30:45.076Z257.119° W2024-12-26 21:11:45.076Z185.079° SSW39.543°2024-12-27 07:00:45.076Z139.7° SSE
|